Location: Oberkirch
(48.5323°N, 8.0787°E)
Time: 17:01:31
(UTC+00:00)

SR - Pass Details

Date: 25 February 2026
Orbit: 572 x 848 km, 66.7° (Epoch: 8 March)

Event Time Altitude Azimuth Distance (km) Brightness Sun altitude
Exits shadow 03:20:57 25° 11° (N) 1,277 ? -29.6°
Drops below altitude 10° 03:23:06 10° 26° (NNE) 2,039 ? -29.2°
Sets 03:25:35 0° 33° (NNE) 2,998 ? -28.8°
